TimeCDT,TemperatureF,Dew PointF,Humidity,Sea Level PressureIn,VisibilityMPH,Wind Direction,Wind SpeedMPH,Gust SpeedMPH,PrecipitationIn,Events,Conditions,WindDirDegrees,DateUTC
12:15 AM,37.4,37.4,100,29.93,10.0,Calm,Calm,-,N/A,,Clear,0,2012-10-01 05:15:00
12:35 AM,39.2,37.4,93,29.92,10.0,Calm,Calm,-,N/A,,Clear,0,2012-10-01 05:35:00
1:15 AM,37.4,37.4,100,29.91,10.0,Calm,Calm,-,N/A,,Clear,0,2012-10-01 06:15:00
1:35 AM,35.6,35.6,100,29.91,7.0,Calm,Calm,-,N/A,,Clear,0,2012-10-01 06:35:00
1:55 AM,37.4,37.4,100,29.91,10.0,Calm,Calm,-,N/A,,Clear,0,2012-10-01 06:55:00
2:35 AM,35.6,35.6,100,29.90,1.0,Calm,Calm,-,N/A,,Mist,0,2012-10-01 07:35:00
3:15 AM,37.4,37.4,100,29.89,10.0,Calm,Calm,-,N/A,,Clear,0,2012-10-01 08:15:00
3:35 AM,35.6,35.6,100,29.89,7.0,Calm,Calm,-,N/A,,Clear,0,2012-10-01 08:35:00
4:15 AM,35.6,35.6,100,29.89,2.0,Calm,Calm,-,N/A,,Clear,0,2012-10-01 09:15:00
4:35 AM,35.6,35.6,100,29.89,10.0,Calm,Calm,-,N/A,,Clear,0,2012-10-01 09:35:00
4:55 AM,35.6,35.6,100,29.88,0.5,Calm,Calm,-,N/A,Fog,Fog,0,2012-10-01 09:55:00
5:15 AM,33.8,33.8,100,29.88,0.5,Calm,Calm,-,N/A,Fog,Fog,0,2012-10-01 10:15:00
5:35 AM,33.8,33.8,100,29.88,3.0,Calm,Calm,-,N/A,,Clear,0,2012-10-01 10:35:00
5:55 AM,33.8,33.8,100,29.88,0.5,Calm,Calm,-,N/A,Fog,Fog,0,2012-10-01 10:55:00
6:15 AM,33.8,33.8,100,29.88,10.0,Calm,Calm,-,N/A,,Clear,0,2012-10-01 11:15:00
6:35 AM,33.8,33.8,100,29.88,5.0,Calm,Calm,-,N/A,,Clear,0,2012-10-01 11:35:00
7:15 AM,33.8,33.8,100,29.88,5.0,Calm,Calm,-,N/A,,Clear,0,2012-10-01 12:15:00
7:35 AM,33.8,33.8,100,29.88,10.0,Calm,Calm,-,N/A,,Clear,0,2012-10-01 12:35:00
7:55 AM,35.6,35.6,100,29.88,7.0,Calm,Calm,-,N/A,,Clear,0,2012-10-01 12:55:00
8:15 AM,37.4,37.4,100,29.88,10.0,Calm,Calm,-,N/A,,Clear,0,2012-10-01 13:15:00
8:35 AM,44.6,42.8,93,29.88,10.0,Calm,Calm,-,N/A,,Clear,0,2012-10-01 13:35:00
8:55 AM,50.0,41.0,71,29.88,10.0,SW,5.8,-,N/A,,Clear,220,2012-10-01 13:55:00
9:15 AM,50.0,41.0,71,29.88,10.0,SW,3.5,-,N/A,,Clear,220,2012-10-01 14:15:00
9:35 AM,51.8,41.0,67,29.88,10.0,SW,4.6,-,N/A,,Clear,220,2012-10-01 14:35:00
9:55 AM,53.6,41.0,62,29.87,10.0,SSW,4.6,-,N/A,,Clear,210,2012-10-01 14:55:00
10:15 AM,55.4,41.0,58,29.86,10.0,SW,4.6,-,N/A,,Clear,220,2012-10-01 15:15:00
10:35 AM,55.4,41.0,58,29.86,10.0,SW,5.8,-,N/A,,Clear,230,2012-10-01 15:35:00
11:15 AM,59.0,41.0,51,29.86,10.0,SW,6.9,-,N/A,,Clear,220,2012-10-01 16:15:00
11:35 AM,60.8,41.0,48,29.86,10.0,WSW,6.9,-,N/A,,Clear,250,2012-10-01 16:35:00
11:55 AM,62.6,41.0,45,29.85,10.0,WSW,6.9,-,N/A,,Clear,240,2012-10-01 16:55:00
12:15 PM,62.6,41.0,45,29.85,10.0,SSW,5.8,-,N/A,,Clear,210,2012-10-01 17:15:00
12:35 PM,64.4,41.0,42,29.85,10.0,West,5.8,-,N/A,,Clear,280,2012-10-01 17:35:00
1:15 PM,68.0,37.4,33,29.84,10.0,West,6.9,-,N/A,,Clear,270,2012-10-01 18:15:00
1:35 PM,68.0,37.4,33,29.83,10.0,WSW,8.1,-,N/A,,Clear,250,2012-10-01 18:35:00
2:15 PM,68.0,37.4,33,29.82,10.0,SW,9.2,-,N/A,,Clear,220,2012-10-01 19:15:00
2:55 PM,68.0,37.4,33,29.82,10.0,West,8.1,-,N/A,,Clear,280,2012-10-01 19:55:00
3:15 PM,69.8,37.4,31,29.82,10.0,WSW,8.1,-,N/A,,Clear,240,2012-10-01 20:15:00
3:35 PM,69.8,37.4,31,29.82,10.0,West,9.2,-,N/A,,Clear,260,2012-10-01 20:35:00
3:55 PM,69.8,37.4,31,29.82,10.0,WSW,8.1,-,N/A,,Clear,250,2012-10-01 20:55:00
4:15 PM,69.8,39.2,33,29.82,10.0,West,9.2,-,N/A,,Clear,280,2012-10-01 21:15:00
4:35 PM,69.8,39.2,33,29.82,10.0,WNW,6.9,-,N/A,,Clear,300,2012-10-01 21:35:00
4:55 PM,66.2,44.6,46,29.84,10.0,NNW,18.4,24.2,N/A,,Clear,330,2012-10-01 21:55:00
5:15 PM,62.6,46.4,55,29.84,10.0,NNW,17.3,21.9,N/A,,Clear,340,2012-10-01 22:15:00
5:35 PM,60.8,46.4,59,29.85,10.0,NNW,13.8,20.7,N/A,,Clear,340,2012-10-01 22:35:00
5:55 PM,60.8,46.4,59,29.86,10.0,NNW,13.8,19.6,N/A,,Clear,340,2012-10-01 22:55:00
6:15 PM,59.0,46.4,63,29.87,10.0,NNW,10.4,20.7,N/A,,Clear,340,2012-10-01 23:15:00
6:35 PM,57.2,46.4,67,29.87,10.0,NNW,9.2,-,N/A,,Clear,340,2012-10-01 23:35:00
6:55 PM,55.4,46.4,72,29.88,10.0,North,8.1,-,N/A,,Clear,350,2012-10-01 23:55:00
7:15 PM,55.4,46.4,72,29.88,10.0,North,4.6,-,N/A,,Clear,350,2012-10-02 00:15:00
7:35 PM,53.6,46.4,77,29.89,10.0,North,5.8,-,N/A,,Clear,350,2012-10-02 00:35:00
7:55 PM,51.8,46.4,82,29.89,10.0,NNW,3.5,-,N/A,,Clear,330,2012-10-02 00:55:00
8:15 PM,51.8,46.4,82,29.89,10.0,NNW,5.8,-,N/A,,Clear,340,2012-10-02 01:15:00
8:35 PM,50.0,48.2,94,29.89,10.0,North,3.5,-,N/A,,Scattered Clouds,350,2012-10-02 01:35:00
8:55 PM,53.6,48.2,82,29.89,10.0,North,6.9,-,N/A,,Mostly Cloudy,350,2012-10-02 01:55:00
9:15 PM,53.6,46.4,77,29.89,10.0,North,6.9,-,N/A,,Overcast,350,2012-10-02 02:15:00
9:35 PM,53.6,46.4,77,29.90,10.0,North,5.8,-,N/A,,Mostly Cloudy,350,2012-10-02 02:35:00
9:55 PM,53.6,46.4,77,29.91,10.0,North,8.1,-,N/A,,Overcast,350,2012-10-02 02:55:00
10:15 PM,53.6,46.4,77,29.91,10.0,North,4.6,-,N/A,,Overcast,360,2012-10-02 03:15:00
10:35 PM,53.6,46.4,77,29.91,10.0,North,5.8,-,N/A,,Overcast,10,2012-10-02 03:35:00
10:55 PM,53.6,46.4,77,29.91,10.0,North,4.6,-,N/A,,Overcast,10,2012-10-02 03:55:00
11:15 PM,51.8,46.4,82,29.91,10.0,North,3.5,-,N/A,,Mostly Cloudy,360,2012-10-02 04:15:00
11:35 PM,50.0,46.4,87,29.91,10.0,Calm,Calm,-,N/A,,Scattered Clouds,0,2012-10-02 04:35:00
11:55 PM,50.0,48.2,94,29.91,10.0,North,4.6,-,N/A,,Clear,350,2012-10-02 04:55:00